TimeCST,TemperatureF,Dew PointF,Humidity,Sea Level PressureIn,VisibilityMPH,Wind Direction,Wind SpeedMPH,Gust SpeedMPH,PrecipitationIn,Events,Conditions,WindDirDegrees,DateUTC
12:15 AM,33.8,26.6,75,29.51,10.0,SW,15.0,-,N/A,,Mostly Cloudy,230,2014-01-26 06:15:00
12:35 AM,39.2,30.2,70,29.50,10.0,WSW,18.4,27.6,N/A,,Overcast,240,2014-01-26 06:35:00
12:55 AM,42.8,30.2,61,29.49,10.0,WSW,19.6,28.8,N/A,,Scattered Clouds,240,2014-01-26 06:55:00
1:15 AM,44.6,30.2,57,29.50,10.0,WSW,12.7,25.3,N/A,,Clear,250,2014-01-26 07:15:00
1:35 AM,44.6,32.0,61,29.50,10.0,West,18.4,-,N/A,,Clear,260,2014-01-26 07:35:00
1:55 AM,46.4,30.2,53,29.50,10.0,West,16.1,-,N/A,,Partly Cloudy,270,2014-01-26 07:55:00
2:15 AM,48.2,30.2,50,29.50,10.0,West,17.3,-,N/A,,Mostly Cloudy,280,2014-01-26 08:15:00
2:35 AM,50.0,30.2,47,29.50,10.0,WNW,19.6,28.8,N/A,,Overcast,300,2014-01-26 08:35:00
2:55 AM,50.0,30.2,47,29.51,10.0,WNW,19.6,27.6,N/A,,Mostly Cloudy,300,2014-01-26 08:55:00
3:15 AM,50.0,32.0,50,29.53,10.0,WNW,17.3,29.9,N/A,,Partly Cloudy,300,2014-01-26 09:15:00
3:35 AM,48.2,32.0,54,29.53,10.0,WNW,20.7,31.1,N/A,,Clear,300,2014-01-26 09:35:00
3:55 AM,48.2,32.0,54,29.54,10.0,NW,19.6,27.6,N/A,,Clear,310,2014-01-26 09:55:00
4:15 AM,48.2,32.0,54,29.55,10.0,NW,25.3,36.8,N/A,,Scattered Clouds,320,2014-01-26 10:15:00
4:35 AM,46.4,33.8,62,29.56,10.0,NW,20.7,29.9,N/A,,Scattered Clouds,320,2014-01-26 10:35:00
4:55 AM,46.4,33.8,62,29.57,10.0,NW,21.9,33.4,N/A,,Mostly Cloudy,320,2014-01-26 10:55:00
5:15 AM,44.6,32.0,61,29.58,10.0,NW,18.4,29.9,N/A,,Scattered Clouds,310,2014-01-26 11:15:00
5:35 AM,44.6,30.2,57,29.58,10.0,NW,20.7,32.2,N/A,,Partly Cloudy,320,2014-01-26 11:35:00
5:55 AM,44.6,28.4,53,29.59,10.0,NNW,16.1,28.8,N/A,,Mostly Cloudy,330,2014-01-26 11:55:00
6:15 AM,42.8,28.4,57,29.60,10.0,NW,13.8,26.5,N/A,,Overcast,320,2014-01-26 12:15:00
6:35 AM,42.8,28.4,57,29.60,10.0,NW,13.8,20.7,N/A,,Mostly Cloudy,310,2014-01-26 12:35:00
6:55 AM,42.8,28.4,57,29.61,10.0,WNW,13.8,23.0,N/A,,Partly Cloudy,300,2014-01-26 12:55:00
7:15 AM,42.8,28.4,57,29.61,10.0,WNW,15.0,-,N/A,,Mostly Cloudy,300,2014-01-26 13:15:00
7:35 AM,42.8,30.2,61,29.61,10.0,WNW,16.1,-,N/A,,Overcast,300,2014-01-26 13:35:00
7:55 AM,42.8,30.2,61,29.61,10.0,WNW,13.8,19.6,N/A,,Scattered Clouds,300,2014-01-26 13:55:00
8:15 AM,42.8,30.2,61,29.61,10.0,NW,12.7,20.7,N/A,,Scattered Clouds,310,2014-01-26 14:15:00
8:35 AM,42.8,30.2,61,29.61,10.0,NW,16.1,23.0,N/A,,Scattered Clouds,310,2014-01-26 14:35:00
8:55 AM,42.8,30.2,61,29.60,10.0,NW,10.4,20.7,N/A,,Partly Cloudy,320,2014-01-26 14:55:00
9:15 AM,44.6,28.4,53,29.60,10.0,NW,11.5,17.3,N/A,,Clear,310,2014-01-26 15:15:00
9:35 AM,44.6,30.2,57,29.60,10.0,WNW,17.3,-,N/A,,Partly Cloudy,300,2014-01-26 15:35:00
9:55 AM,44.6,30.2,57,29.60,10.0,West,12.7,-,N/A,,Scattered Clouds,280,2014-01-26 15:55:00
10:15 AM,46.4,30.2,53,29.60,10.0,WNW,12.7,19.6,N/A,,Clear,290,2014-01-26 16:15:00
10:35 AM,46.4,30.2,53,29.60,10.0,WNW,23.0,31.1,N/A,,Clear,300,2014-01-26 16:35:00
10:55 AM,48.2,30.2,50,29.60,10.0,West,15.0,26.5,N/A,,Clear,280,2014-01-26 16:55:00
11:15 AM,48.2,28.4,46,29.60,10.0,WNW,15.0,23.0,N/A,,Clear,300,2014-01-26 17:15:00
11:35 AM,48.2,26.6,43,29.60,10.0,WNW,19.6,33.4,N/A,,Clear,290,2014-01-26 17:35:00
11:55 AM,48.2,26.6,43,29.59,10.0,WNW,16.1,26.5,N/A,,Clear,290,2014-01-26 17:55:00
12:15 PM,48.2,28.4,46,29.57,10.0,WNW,15.0,25.3,N/A,,Clear,290,2014-01-26 18:15:00
12:35 PM,48.2,28.4,46,29.57,10.0,West,15.0,21.9,N/A,,Clear,280,2014-01-26 18:35:00
12:55 PM,48.2,28.4,46,29.56,10.0,West,18.4,26.5,N/A,,Clear,280,2014-01-26 18:55:00
1:15 PM,50.0,28.4,43,29.57,10.0,WNW,17.3,29.9,N/A,,Clear,290,2014-01-26 19:15:00
1:35 PM,50.0,28.4,43,29.56,10.0,WNW,19.6,34.5,N/A,,Clear,290,2014-01-26 19:35:00
1:55 PM,50.0,28.4,43,29.56,10.0,WNW,16.1,28.8,N/A,,Mostly Cloudy,290,2014-01-26 19:55:00
2:15 PM,50.0,26.6,40,29.56,10.0,NW,25.3,36.8,N/A,,Overcast,310,2014-01-26 20:15:00
2:35 PM,51.8,26.6,38,29.56,10.0,WNW,21.9,35.7,N/A,,Scattered Clouds,300,2014-01-26 20:35:00
2:55 PM,51.8,24.8,35,29.56,10.0,NW,26.5,40.3,N/A,,Partly Cloudy,310,2014-01-26 20:55:00
3:15 PM,46.4,30.2,53,29.61,9.0,NW,31.1,57.5,N/A,,Scattered Clouds,320,2014-01-26 21:15:00
3:35 PM,41.0,21.2,45,29.66,10.0,NNW,26.5,46.0,N/A,,Partly Cloudy,330,2014-01-26 21:35:00
3:55 PM,37.4,17.6,45,29.69,10.0,NW,28.8,48.3,N/A,,Scattered Clouds,320,2014-01-26 21:55:00
4:15 PM,35.6,15.8,44,29.71,10.0,NNW,34.5,51.8,N/A,,Mostly Cloudy,330,2014-01-26 22:15:00
4:35 PM,33.8,14.0,44,29.75,10.0,NW,29.9,49.5,N/A,,Overcast,320,2014-01-26 22:35:00
4:55 PM,32.0,-5.8,20,29.78,7.0,NW,32.2,54.1,N/A,,Overcast,320,2014-01-26 22:55:00
5:15 PM,30.2,-4.0,23,29.80,6.0,NW,34.5,50.6,N/A,,Haze,320,2014-01-26 23:15:00
5:35 PM,28.4,6.8,40,29.84,9.0,NNW,33.4,44.9,N/A,,Mostly Cloudy,330,2014-01-26 23:35:00
5:55 PM,26.6,10.4,51,29.88,10.0,NNW,38.0,50.6,N/A,,Overcast,330,2014-01-26 23:55:00
6:15 PM,23.0,8.6,54,29.94,10.0,NNW,25.3,47.2,N/A,Snow,Light Snow,330,2014-01-27 00:15:00
6:35 PM,21.2,3.2,46,29.96,10.0,NNW,26.5,47.2,N/A,,Overcast,340,2014-01-27 00:35:00
6:55 PM,19.4,1.4,46,30.00,10.0,NNW,29.9,43.7,N/A,,Overcast,330,2014-01-27 00:55:00
7:15 PM,17.6,-0.4,45,30.02,10.0,NNW,31.1,42.6,N/A,,Overcast,330,2014-01-27 01:15:00
7:35 PM,17.6,-4.0,38,30.06,10.0,NNW,26.5,39.1,N/A,,Mostly Cloudy,330,2014-01-27 01:35:00
7:55 PM,15.8,-2.2,45,30.07,10.0,North,23.0,44.9,N/A,,Overcast,350,2014-01-27 01:55:00
8:15 PM,14.0,-2.2,49,30.09,10.0,NNW,27.6,42.6,N/A,,Mostly Cloudy,340,2014-01-27 02:15:00
8:35 PM,14.0,-2.2,49,30.11,10.0,NNW,24.2,44.9,N/A,,Scattered Clouds,330,2014-01-27 02:35:00
8:55 PM,12.2,1.4,62,30.13,9.0,NNW,25.3,35.7,N/A,Snow,Light Snow,330,2014-01-27 02:55:00
9:15 PM,12.2,-4.0,48,30.15,10.0,NNW,25.3,41.4,N/A,,Scattered Clouds,330,2014-01-27 03:15:00
9:35 PM,10.4,-4.0,52,30.17,8.0,NNW,21.9,36.8,N/A,,Mostly Cloudy,340,2014-01-27 03:35:00
9:55 PM,8.6,-4.0,57,30.19,10.0,NNW,18.4,34.5,N/A,,Overcast,340,2014-01-27 03:55:00
10:15 PM,8.6,-7.6,48,30.20,10.0,NNW,19.6,35.7,N/A,,Scattered Clouds,340,2014-01-27 04:15:00
10:35 PM,6.8,-9.4,48,30.21,10.0,NNW,28.8,39.1,N/A,,Scattered Clouds,340,2014-01-27 04:35:00
10:55 PM,6.8,-13.0,40,30.23,10.0,NNW,19.6,38.0,N/A,,Clear,330,2014-01-27 04:55:00
11:15 PM,6.8,-13.0,40,30.25,10.0,NNW,19.6,28.8,N/A,,Partly Cloudy,340,2014-01-27 05:15:00
11:35 PM,5.0,-14.8,40,30.26,10.0,NNW,18.4,29.9,N/A,,Scattered Clouds,340,2014-01-27 05:35:00
11:55 PM,5.0,-14.8,40,30.28,10.0,NNW,17.3,31.1,N/A,,Partly Cloudy,340,2014-01-27 05:55:00